Вернуться в каталог

STARLINK-33829

АктивенСвязьVLEO
NORAD 63496·PAYLOAD·🇺🇸 United States

Запущен Apr 7, 2025 с Vandenberg Space Force Base

Loading…

Ближайшие Пролёты (ближайшие 24 часа)

TLE

СвежийSource: CelesTrak SupGP

Эпоха: Sep 14, 2026, 21:40 UTC

1 63496C 25071D   26257.90326389 -.00016544  00000+0 -53219-3 0  2576
2 63496  53.1606 340.0332 0001192  82.5943 279.6816 15.31700477    15

Отслеживайте STARLINK-33829 в реальном времени с AllMySat

Download on the App Store